Погода в Марьевке

Украина / Днепропетровская область     47°36′54″N   34°37′14″E
В апреле 2022 года жителям России запретили посещать сайт meteo.paraplan.net по решению Генеральной прокуратуры. Аудитория сайта уменьшилась в 10 раз. Владельцы сайта не видят смысла в поддержке погодного сервера в таких условиях. Сайт будет закрыт в октябре.
темп.,
°C
ветер,
м/с
пор.,
м/с
влажн.,
%
обл.,
%
осадки,
мм/ч
давл.,
гПа
погр.,
м
25 сентября, вс
вс2500:00+13зсз9106211 0.0 1017905
03:00+13зсз91163100 0.0 1018819
06:00+13з911635 0.0 1018924
09:00+14з910595 0.0 10191235
12:00+16з911488 0.0 10191724
15:00+18з9114043 0.0 10181992
18:00+18з79425 0.0 10171313
21:00+17з244689 0.0 1017591
26 сентября, пн
пн2600:00+15юз4665100 0.0 1017327
03:00+15ююз61080100 0.5 1017535
06:00+15ююз7117882 0.3 1016467
09:00+17юз796867 0.3 1016550
12:00+20юз565268 0.0 10151039
15:00+22юз464591 0.0 1014980
18:00+20ю5751100 0.0 1013167
21:00+18ю5104982 0.0 1013297
27 сентября, вт
вт2700:00+16ю5880100 0.0 1012181
03:00+16ю4679100 0.0 1010162
06:00+16ююв4680100 0.0 1009159
09:00+17юв4786100 0.0 1008362
12:00+22ю5656100 0.0 1006645
15:00+24ююз473598 0.0 1004958
18:00+24ююв5834100 0.0 1003161
21:00+20ю5963100 0.0 1003278
28 сентября, ср
ср2800:00+19ююз5972100 0.0 1002343
03:00+18юз61087100 1.4 1002626
06:00+19юз7118199 0.7 1002672
09:00+19зюз797876 0.8 1003750
12:00+21з576924 0.2 1003725
15:00+22з45575 0.4 1004760
18:00+21зсз23555 0.0 100435
21:00+19с445773 0.0 100646
29 сентября, чт
чт2900:00+18ссв3660100 0.0 1008168
03:00+17св45675 0.0 1009131
06:00+16всв467215 0.0 1010149
09:00+18в566465 0.0 1011328
12:00+21в445447 0.0 1012482
15:00+22всв434928 0.0 1012657
18:00+21св345248 0.0 101240
21:00+20в4657100 0.0 101394